This is the latest recevied weather packets stored in our database for station/object KD8NVS-13. If no packets are shown the sender has not sent any weather packets the latest 1 day(s).
| Time | Temp. | Humidity | Pressure | Rain* | Wind** | Luminosity | Snow |
|---|---|---|---|---|---|---|---|
| 1836274621 | 18.33° C | 83% | 1009 hPa | 0 mm | 0 m/s | 0 W/m² | - |
| 1836274475 | 18.89° C | 81% | 1009.4 hPa | 0 mm | 0 m/s | 0 W/m² | - |
| 1836274320 | 18.33° C | 82% | 1009.4 hPa | 0 mm | 0 m/s | 0 W/m² | - |
| 1836274173 | 18.33° C | 83% | 1009 hPa | 0 mm | 0 m/s | 0 W/m² | - |
| 1836274018 | 18.33° C | 82% | 1009 hPa | 0 mm | 0 m/s | 0 W/m² | - |
| 1778060223 | 8.89° C | 96% | 997.6 hPa | 0.25 mm | 2.24 m/s, 264° | 0 W/m² | - |
| 1778059919 | 8.89° C | 96% | 997.3 hPa | 0 mm | 0 m/s | 0 W/m² | - |
| 1778059617 | 8.89° C | 96% | 997.3 hPa | 0 mm | 1.34 m/s, 264° | 0 W/m² | - |
| 1778059314 | 8.89° C | 96% | 997.6 hPa | 0 mm | 1.79 m/s, 252° | 0 W/m² | - |
| 1778059012 | 8.89° C | 96% | 997.3 hPa | 0 mm | 2.24 m/s, 258° | 0 W/m² | - |
| 1778058709 | 8.89° C | 96% | 997.6 hPa | 0 mm | 1.34 m/s, 265° | 0 W/m² | - |
| 1778058407 | 8.89° C | 96% | 997 hPa | 0 mm | 1.34 m/s, 252° | 0 W/m² | - |
| 1778058103 | 8.89° C | 96% | 996.6 hPa | 0 mm | 3.13 m/s, 252° | 0 W/m² | - |
| 1778057800 | 8.89° C | 97% | 997.3 hPa | 2.29 mm | 3.58 m/s, 252° | 0 W/m² | - |
| 1778057496 | 9.44° C | 97% | 997.3 hPa | 1.78 mm | 1.79 m/s, 258° | 0 W/m² | - |
| 1778057193 | 9.44° C | 97% | 997.3 hPa | 1.78 mm | 2.24 m/s, 264° | 0 W/m² | - |
| 1778056890 | 9.44° C | 97% | 997.3 hPa | 1.52 mm | 0.89 m/s, 258° | 0 W/m² | - |
| 1778056587 | 9.44° C | 96% | 997.6 hPa | 1.52 mm | 2.24 m/s, 264° | 0 W/m² | - |
| 1778056285 | 9.44° C | 96% | 997.3 hPa | 1.52 mm | 0.89 m/s, 254° | 0 W/m² | - |
| 1778055981 | 9.44° C | 96% | 997 hPa | 1.02 mm | 1.79 m/s, 264° | 0 W/m² | - |
| 1778055677 | 9.44° C | 97% | 997 hPa | 0.76 mm | 0.89 m/s, 264° | 0 W/m² | - |
| 1778055375 | 9.44° C | 97% | 997.3 hPa | 0.25 mm | 0.89 m/s, 271° | 0 W/m² | - |
| 1778055073 | 9.44° C | 97% | 997.3 hPa | 0.25 mm | 2.24 m/s, 240° | 0 W/m² | - |
| 1778054770 | 9.44° C | 97% | 997 hPa | 0 mm | 2.24 m/s, 270° | 0 W/m² | - |
| 1778054467 | 9.44° C | 97% | 997 hPa | 1.52 mm | 1.34 m/s, 252° | 0 W/m² | - |
* Rain latest hour (hover to see other rain measurements)
** Current wind speed in m/s (hover to see current wind gust speed)